Time,TemperatureF,DewpointF,PressureIn,WindDirection,WindDirectionDegrees,WindSpeedMPH,WindSpeedGustMPH,Humidity,HourlyPrecipIn,Conditions,Clouds,dailyrainin,SoftwareType,DateUTC
2013-02-14 00:00:00,32.2,29.0,30.01,NNE,14,1.0,1.0,88,0.00,,,0.00,Wunderground v.1.15,2013-02-14 05:00:00,
2013-02-14 00:10:00,32.2,28.8,30.01,WSW,254,1.0,1.0,87,0.00,,,0.00,Wunderground v.1.15,2013-02-14 05:10:00,
2013-02-14 00:15:00,32.1,28.9,30.01,SE,145,1.0,5.0,88,0.00,,,0.00,Wunderground v.1.15,2013-02-14 05:15:00,
2013-02-14 00:20:00,32.0,28.8,30.02,SE,144,1.0,5.0,88,0.00,,,0.00,Wunderground v.1.15,2013-02-14 05:20:00,
2013-02-14 00:25:00,32.1,28.9,30.01,SE,145,1.0,5.0,88,0.00,,,0.00,Wunderground v.1.15,2013-02-14 05:25:00,
2013-02-14 00:30:00,32.1,28.9,30.02,ESE,123,1.0,5.0,88,0.00,,,0.00,Wunderground v.1.15,2013-02-14 05:30:00,
2013-02-14 00:40:00,32.1,28.9,30.02,ENE,58,2.0,5.0,88,0.00,,,0.00,Wunderground v.1.15,2013-02-14 05:40:00,
2013-02-14 00:45:00,32.1,28.9,30.02,NNE,24,1.0,5.0,88,0.00,,,0.00,Wunderground v.1.15,2013-02-14 05:45:00,
2013-02-14 00:50:00,32.0,29.1,30.02,SSE,156,1.0,1.0,89,0.00,,,0.00,Wunderground v.1.15,2013-02-14 05:50:00,
2013-02-14 00:55:00,32.0,29.1,30.02,SSE,152,1.0,5.0,89,0.00,,,0.00,Wunderground v.1.15,2013-02-14 05:55:00,
2013-02-14 01:00:00,32.0,29.1,30.03,SSE,153,1.0,5.0,89,0.00,,,0.00,Wunderground v.1.15,2013-02-14 06:00:00,
2013-02-14 01:10:00,32.0,29.1,30.03,SSE,156,1.0,5.0,89,0.00,,,0.00,Wunderground v.1.15,2013-02-14 06:10:00,
2013-02-14 01:15:00,32.0,29.4,30.03,ENE,78,1.0,5.0,90,0.00,,,0.00,Wunderground v.1.15,2013-02-14 06:15:00,
2013-02-14 01:20:00,32.1,29.5,30.03,SSE,167,1.0,1.0,90,0.00,,,0.00,Wunderground v.1.15,2013-02-14 06:20:00,
2013-02-14 01:25:00,32.1,29.5,30.03,SE,126,1.0,5.0,90,0.00,,,0.00,Wunderground v.1.15,2013-02-14 06:25:00,
2013-02-14 01:30:00,32.0,29.7,30.03,SE,137,1.0,1.0,91,0.00,,,0.00,Wunderground v.1.15,2013-02-14 06:30:00,
2013-02-14 01:35:00,32.0,29.7,30.03,SE,140,1.0,2.0,91,0.00,,,0.00,Wunderground v.1.15,2013-02-14 06:35:00,
2013-02-14 01:40:00,32.0,29.7,30.03,ESE,106,2.0,5.0,91,0.00,,,0.00,Wunderground v.1.15,2013-02-14 06:40:00,
2013-02-14 01:45:00,32.0,29.7,30.03,South,186,2.0,5.0,91,0.00,,,0.00,Wunderground v.1.15,2013-02-14 06:45:00,
2013-02-14 01:50:00,32.0,29.7,30.03,SW,224,1.0,5.0,91,0.00,,,0.00,Wunderground v.1.15,2013-02-14 06:50:00,
2013-02-14 01:55:00,32.0,29.7,30.03,SE,133,2.0,5.0,91,0.00,,,0.00,Wunderground v.1.15,2013-02-14 06:55:00,
2013-02-14 02:00:00,31.9,29.6,30.03,SSW,209,2.0,2.0,91,0.00,,,0.00,Wunderground v.1.15,2013-02-14 07:00:00,
2013-02-14 02:10:00,31.8,29.5,30.04,South,171,2.0,2.0,91,0.00,,,0.00,Wunderground v.1.15,2013-02-14 07:10:00,
2013-02-14 02:15:00,31.7,29.4,30.04,WSW,247,2.0,5.0,91,0.00,,,0.00,Wunderground v.1.15,2013-02-14 07:15:00,
2013-02-14 02:20:00,31.6,29.3,30.04,SSE,148,2.0,5.0,91,0.00,,,0.00,Wunderground v.1.15,2013-02-14 07:20:00,
2013-02-14 02:25:00,31.5,29.2,30.04,South,190,3.0,5.0,91,0.00,,,0.00,Wunderground v.1.15,2013-02-14 07:25:00,
2013-02-14 02:30:00,31.4,29.1,30.04,ENE,69,3.0,5.0,91,0.00,,,0.00,Wunderground v.1.15,2013-02-14 07:30:00,
2013-02-14 02:35:00,31.3,29.2,30.04,South,173,3.0,5.0,92,0.00,,,0.00,Wunderground v.1.15,2013-02-14 07:35:00,
2013-02-14 02:40:00,31.3,29.2,30.05,South,179,3.0,3.0,92,0.00,,,0.00,Wunderground v.1.15,2013-02-14 07:40:00,
2013-02-14 02:45:00,31.2,29.1,30.05,SSW,198,3.0,5.0,92,0.00,,,0.00,Wunderground v.1.15,2013-02-14 07:45:00,
2013-02-14 02:50:00,31.2,29.1,30.04,South,171,3.0,5.0,92,0.00,,,0.00,Wunderground v.1.15,2013-02-14 07:50:00,
2013-02-14 02:55:00,31.1,29.0,30.04,SSE,152,3.0,5.0,92,0.00,,,0.00,Wunderground v.1.15,2013-02-14 07:55:00,
2013-02-14 03:00:00,31.1,29.0,30.04,SSW,198,3.0,5.0,92,0.00,,,0.00,Wunderground v.1.15,2013-02-14 08:00:00,
2013-02-14 03:10:00,31.1,28.8,30.04,SSE,167,4.0,4.0,91,0.00,,,0.00,Wunderground v.1.15,2013-02-14 08:10:00,
2013-02-14 03:15:00,31.1,28.8,30.04,SSE,168,5.0,5.0,91,0.00,,,0.00,Wunderground v.1.15,2013-02-14 08:15:00,
2013-02-14 03:25:00,31.0,28.7,30.04,SSE,161,5.0,5.0,91,0.00,,,0.00,Wunderground v.1.15,2013-02-14 08:25:00,
2013-02-14 03:30:00,30.9,28.6,30.04,SSW,202,4.0,5.0,91,0.00,,,0.00,Wunderground v.1.15,2013-02-14 08:30:00,
2013-02-14 03:35:00,30.8,28.8,30.04,South,182,4.0,5.0,92,0.00,,,0.00,Wunderground v.1.15,2013-02-14 08:35:00,
2013-02-14 03:40:00,30.8,28.8,30.04,SSE,149,5.0,5.0,92,0.00,,,0.00,Wunderground v.1.15,2013-02-14 08:40:00,
2013-02-14 03:45:00,30.8,28.8,30.04,South,186,4.0,5.0,92,0.00,,,0.00,Wunderground v.1.15,2013-02-14 08:45:00,
2013-02-14 03:50:00,30.8,28.5,30.04,SSW,206,4.0,7.0,91,0.00,,,0.00,Wunderground v.1.15,2013-02-14 08:50:00,
2013-02-14 03:55:00,30.8,28.5,30.04,South,187,4.0,7.0,91,0.00,,,0.00,Wunderground v.1.15,2013-02-14 08:55:00,
2013-02-14 04:01:00,30.8,28.5,30.04,North,360,3.0,3.0,91,0.00,,,0.00,Wunderground v.1.15,2013-02-14 09:01:00,
2013-02-14 04:05:00,30.7,28.4,30.05,SSW,207,3.0,4.0,91,0.00,,,0.00,Wunderground v.1.15,2013-02-14 09:05:00,
2013-02-14 04:10:00,30.7,28.4,30.05,SSW,211,3.0,3.0,91,0.00,,,0.00,Wunderground v.1.15,2013-02-14 09:10:00,
2013-02-14 04:15:00,30.6,28.3,30.05,South,184,2.0,5.0,91,0.00,,,0.00,Wunderground v.1.15,2013-02-14 09:15:00,
2013-02-14 04:20:00,30.5,28.2,30.05,South,186,1.0,5.0,91,0.00,,,0.00,Wunderground v.1.15,2013-02-14 09:20:00,
2013-02-14 04:25:00,30.5,28.2,30.05,SSE,167,1.0,5.0,91,0.00,,,0.00,Wunderground v.1.15,2013-02-14 09:25:00,
2013-02-14 04:30:00,30.5,28.2,30.06,South,180,2.0,5.0,91,0.00,,,0.00,Wunderground v.1.15,2013-02-14 09:30:00,
2013-02-14 04:35:00,30.5,28.2,30.06,South,170,3.0,5.0,91,0.00,,,0.00,Wunderground v.1.15,2013-02-14 09:35:00,
2013-02-14 04:40:00,30.5,28.2,30.06,South,170,3.0,5.0,91,0.00,,,0.00,Wunderground v.1.15,2013-02-14 09:40:00,
2013-02-14 04:45:00,30.4,28.1,30.06,SE,144,2.0,5.0,91,0.00,,,0.00,Wunderground v.1.15,2013-02-14 09:45:00,
2013-02-14 04:50:00,30.3,28.0,30.06,SSE,153,2.0,5.0,91,0.00,,,0.00,Wunderground v.1.15,2013-02-14 09:50:00,
2013-02-14 04:55:00,30.3,28.0,30.06,SSE,153,1.0,5.0,91,0.00,,,0.00,Wunderground v.1.15,2013-02-14 09:55:00,
2013-02-14 05:00:00,30.1,28.1,30.07,SSW,192,1.0,5.0,92,0.00,,,0.00,Wunderground v.1.15,2013-02-14 10:00:00,
2013-02-14 05:05:00,30.1,27.8,30.06,South,181,1.0,5.0,91,0.00,,,0.00,Wunderground v.1.15,2013-02-14 10:05:00,
2013-02-14 05:15:00,29.9,27.9,30.07,South,185,1.0,5.0,92,0.00,,,0.00,Wunderground v.1.15,2013-02-14 10:15:00,
2013-02-14 05:20:00,29.9,27.9,30.07,South,187,2.0,2.0,92,0.00,,,0.00,Wunderground v.1.15,2013-02-14 10:20:00,
2013-02-14 05:30:00,29.8,27.8,30.08,South,173,1.0,1.0,92,0.00,,,0.00,Wunderground v.1.15,2013-02-14 10:30:00,
2013-02-14 05:35:00,29.8,27.8,30.07,ENE,77,1.0,5.0,92,0.00,,,0.00,Wunderground v.1.15,2013-02-14 10:35:00,
2013-02-14 05:40:00,29.8,27.8,30.07,ENE,77,1.0,5.0,92,0.00,,,0.00,Wunderground v.1.15,2013-02-14 10:40:00,
2013-02-14 05:45:00,29.7,27.7,30.07,SSW,207,1.0,5.0,92,0.00,,,0.00,Wunderground v.1.15,2013-02-14 10:45:00,
2013-02-14 05:50:00,29.7,27.7,30.07,SSW,207,1.0,5.0,92,0.00,,,0.00,Wunderground v.1.15,2013-02-14 10:50:00,
2013-02-14 05:55:00,29.7,27.7,30.07,SSW,205,1.0,6.0,92,0.00,,,0.00,Wunderground v.1.15,2013-02-14 10:55:00,
2013-02-14 06:00:00,29.8,27.5,30.08,South,181,2.0,5.0,91,0.00,,,0.00,Wunderground v.1.15,2013-02-14 11:00:00,
2013-02-14 06:10:00,29.9,27.3,30.08,SE,128,1.0,5.0,90,0.00,,,0.00,Wunderground v.1.15,2013-02-14 11:10:00,
2013-02-14 06:15:00,29.9,27.3,30.08,South,182,1.0,5.0,90,0.00,,,0.00,Wunderground v.1.15,2013-02-14 11:15:00,
2013-02-14 06:20:00,29.9,27.3,30.08,SSE,161,1.0,5.0,90,0.00,,,0.00,Wunderground v.1.15,2013-02-14 11:20:00,
2013-02-14 06:30:00,29.9,27.3,30.09,SSE,168,2.0,5.0,90,0.00,,,0.00,Wunderground v.1.15,2013-02-14 11:30:00,
2013-02-14 06:35:00,30.1,27.5,30.09,SSE,165,2.0,5.0,90,0.00,,,0.00,Wunderground v.1.15,2013-02-14 11:35:00,
2013-02-14 06:40:00,30.1,27.5,30.09,South,180,1.0,5.0,90,0.00,,,0.00,Wunderground v.1.15,2013-02-14 11:40:00,
2013-02-14 06:45:00,30.1,27.3,30.09,South,175,2.0,5.0,89,0.00,,,0.00,Wunderground v.1.15,2013-02-14 11:45:00,
2013-02-14 06:50:00,30.1,27.3,30.10,South,171,2.0,5.0,89,0.00,,,0.00,Wunderground v.1.15,2013-02-14 11:50:00,
2013-02-14 06:55:00,30.2,27.3,30.10,SSE,158,2.0,5.0,89,0.00,,,0.00,Wunderground v.1.15,2013-02-14 11:55:00,
2013-02-14 07:00:00,30.2,27.3,30.10,SW,215,3.0,3.0,89,0.00,,,0.00,Wunderground v.1.15,2013-02-14 12:00:00,
2013-02-14 07:05:00,30.2,27.3,30.11,SW,215,2.0,5.0,89,0.00,,,0.00,Wunderground v.1.15,2013-02-14 12:05:00,
2013-02-14 07:10:00,30.1,27.3,30.12,SW,215,1.0,5.0,89,0.00,,,0.00,Wunderground v.1.15,2013-02-14 12:10:00,
2013-02-14 07:15:00,30.1,27.3,30.12,SE,131,2.0,5.0,89,0.00,,,0.00,Wunderground v.1.15,2013-02-14 12:15:00,
2013-02-14 07:20:00,30.1,27.3,30.12,WSW,240,2.0,2.0,89,0.00,,,0.00,Wunderground v.1.15,2013-02-14 12:20:00,
2013-02-14 07:25:00,30.0,27.2,30.12,SSE,166,1.0,5.0,89,0.00,,,0.00,Wunderground v.1.15,2013-02-14 12:25:00,
2013-02-14 07:30:00,30.0,27.2,30.12,SSW,212,1.0,5.0,89,0.00,,,0.00,Wunderground v.1.15,2013-02-14 12:30:00,
2013-02-14 07:40:00,29.9,27.1,30.13,SE,129,1.0,1.0,89,0.00,,,0.00,Wunderground v.1.15,2013-02-14 12:40:00,
2013-02-14 07:45:00,29.8,27.0,30.13,SE,129,1.0,2.0,89,0.00,,,0.00,Wunderground v.1.15,2013-02-14 12:45:00,
2013-02-14 07:50:00,29.7,26.9,30.13,SSW,198,1.0,5.0,89,0.00,,,0.00,Wunderground v.1.15,2013-02-14 12:50:00,
2013-02-14 07:55:00,29.7,26.9,30.14,SSE,167,1.0,5.0,89,0.00,,,0.00,Wunderground v.1.15,2013-02-14 12:55:00,
2013-02-14 08:01:00,29.7,26.9,30.14,ESE,114,2.0,5.0,89,0.00,,,0.00,Wunderground v.1.15,2013-02-14 13:01:00,
2013-02-14 08:05:00,29.8,27.0,30.14,ESE,110,3.0,5.0,89,0.00,,,0.00,Wunderground v.1.15,2013-02-14 13:05:00,
2013-02-14 08:10:00,29.8,27.0,30.13,South,170,2.0,5.0,89,0.00,,,0.00,Wunderground v.1.15,2013-02-14 13:10:00,
2013-02-14 08:15:00,29.9,26.8,30.13,SSE,168,3.0,5.0,88,0.00,,,0.00,Wunderground v.1.15,2013-02-14 13:15:00,
2013-02-14 08:20:00,29.9,26.8,30.14,South,178,3.0,5.0,88,0.00,,,0.00,Wunderground v.1.15,2013-02-14 13:20:00,
2013-02-14 08:25:00,30.1,27.0,30.15,South,188,3.0,5.0,88,0.00,,,0.00,Wunderground v.1.15,2013-02-14 13:25:00,
2013-02-14 08:35:00,30.2,27.1,30.16,ESE,111,1.0,5.0,88,0.00,,,0.00,Wunderground v.1.15,2013-02-14 13:35:00,
2013-02-14 08:40:00,30.3,27.2,30.15,SSE,159,1.0,5.0,88,0.00,,,0.00,Wunderground v.1.15,2013-02-14 13:40:00,
2013-02-14 08:45:00,30.4,27.3,30.16,South,189,2.0,5.0,88,0.00,,,0.00,Wunderground v.1.15,2013-02-14 13:45:00,
2013-02-14 08:50:00,30.5,27.1,30.16,ENE,78,1.0,5.0,87,0.00,,,0.00,Wunderground v.1.15,2013-02-14 13:50:00,
2013-02-14 08:55:00,30.7,27.3,30.17,NNW,341,1.0,5.0,87,0.00,,,0.00,Wunderground v.1.15,2013-02-14 13:55:00,
2013-02-14 09:00:00,30.9,27.5,30.17,SSE,162,1.0,1.0,87,0.00,,,0.00,Wunderground v.1.15,2013-02-14 14:00:00,
2013-02-14 09:05:00,31.1,27.4,30.18,SSE,162,1.0,5.0,86,0.00,,,0.00,Wunderground v.1.15,2013-02-14 14:05:00,
2013-02-14 09:10:00,31.2,27.5,30.18,SSE,162,1.0,1.0,86,0.00,,,0.00,Wunderground v.1.15,2013-02-14 14:10:00,
2013-02-14 09:15:00,31.4,27.7,30.18,SSE,162,0.0,5.0,86,0.00,,,0.00,Wunderground v.1.15,2013-02-14 14:15:00,
2013-02-14 09:20:00,31.6,27.9,30.18,SSE,162,0.0,5.0,86,0.00,,,0.00,Wunderground v.1.15,2013-02-14 14:20:00,
2013-02-14 09:25:00,31.8,27.8,30.18,SSE,148,0.0,5.0,85,0.00,,,0.00,Wunderground v.1.15,2013-02-14 14:25:00,
2013-02-14 09:30:00,32.0,28.0,30.17,NNE,21,1.0,5.0,85,0.00,,,0.00,Wunderground v.1.15,2013-02-14 14:30:00,
2013-02-14 09:35:00,32.4,28.1,30.17,ENE,76,1.0,5.0,84,0.00,,,0.00,Wunderground v.1.15,2013-02-14 14:35:00,
2013-02-14 09:40:00,33.1,28.8,30.16,SSW,211,1.0,1.0,84,0.00,,,0.00,Wunderground v.1.15,2013-02-14 14:40:00,
2013-02-14 09:45:00,33.8,28.9,30.17,ESE,119,1.0,5.0,82,0.00,,,0.00,Wunderground v.1.15,2013-02-14 14:45:00,
2013-02-14 09:50:00,34.2,28.7,30.17,NE,41,1.0,5.0,80,0.00,,,0.00,Wunderground v.1.15,2013-02-14 14:50:00,
2013-02-14 09:55:00,34.5,29.3,30.17,North,355,1.0,5.0,81,0.00,,,0.00,Wunderground v.1.15,2013-02-14 14:55:00,
2013-02-14 10:00:00,35.3,29.7,30.17,North,355,1.0,1.0,80,0.00,,,0.00,Wunderground v.1.15,2013-02-14 15:00:00,
2013-02-14 10:10:00,36.1,29.9,30.17,SW,236,1.0,5.0,78,0.00,,,0.00,Wunderground v.1.15,2013-02-14 15:10:00,
2013-02-14 10:15:00,36.3,29.8,30.17,WSW,244,2.0,5.0,77,0.00,,,0.00,Wunderground v.1.15,2013-02-14 15:15:00,
2013-02-14 10:20:00,36.7,30.8,30.17,WSW,244,1.0,1.0,79,0.00,,,0.00,Wunderground v.1.15,2013-02-14 15:20:00,
2013-02-14 10:25:00,38.1,31.2,30.16,WNW,288,0.0,3.0,76,0.00,,,0.00,Wunderground v.1.15,2013-02-14 15:25:00,
2013-02-14 10:30:00,38.3,30.4,30.16,North,5,1.0,1.0,73,0.00,,,0.00,Wunderground v.1.15,2013-02-14 15:30:00,
2013-02-14 10:35:00,38.8,30.9,30.16,NNW,343,1.0,5.0,73,0.00,,,0.00,Wunderground v.1.15,2013-02-14 15:35:00,
2013-02-14 10:40:00,39.1,30.5,30.15,SSW,198,1.0,5.0,71,0.00,,,0.00,Wunderground v.1.15,2013-02-14 15:40:00,
2013-02-14 10:45:00,39.3,30.7,30.15,SSE,155,1.0,5.0,71,0.00,,,0.00,Wunderground v.1.15,2013-02-14 15:45:00,
2013-02-14 10:50:00,39.4,30.4,30.15,North,355,1.0,5.0,70,0.00,,,0.00,Wunderground v.1.15,2013-02-14 15:50:00,
2013-02-14 10:55:00,39.4,30.1,30.15,WSW,238,2.0,5.0,69,0.00,,,0.00,Wunderground v.1.15,2013-02-14 15:55:00,
2013-02-14 11:01:00,39.6,30.6,30.15,SE,131,2.0,5.0,70,0.00,,,0.00,Wunderground v.1.15,2013-02-14 16:01:00,
2013-02-14 11:10:00,40.1,30.4,30.16,WNW,294,2.0,5.0,68,0.00,,,0.00,Wunderground v.1.15,2013-02-14 16:10:00,
2013-02-14 11:15:00,40.4,30.7,30.17,NE,41,2.0,5.0,68,0.00,,,0.00,Wunderground v.1.15,2013-02-14 16:15:00,
2013-02-14 11:20:00,40.1,30.0,30.17,NNE,25,2.0,2.0,67,0.00,,,0.00,Wunderground v.1.15,2013-02-14 16:20:00,
2013-02-14 11:25:00,40.3,30.9,30.16,North,355,1.0,5.0,69,0.00,,,0.00,Wunderground v.1.15,2013-02-14 16:25:00,
2013-02-14 11:30:00,41.0,31.2,30.16,SSE,160,1.0,5.0,68,0.00,,,0.00,Wunderground v.1.15,2013-02-14 16:30:00,
2013-02-14 11:35:00,41.4,31.3,30.15,SSE,168,2.0,5.0,67,0.00,,,0.00,Wunderground v.1.15,2013-02-14 16:35:00,
2013-02-14 11:40:00,41.8,31.3,30.15,SSE,160,2.0,2.0,66,0.00,,,0.00,Wunderground v.1.15,2013-02-14 16:40:00,
2013-02-14 11:45:00,41.8,31.3,30.15,SSW,194,2.0,4.0,66,0.00,,,0.00,Wunderground v.1.15,2013-02-14 16:45:00,
2013-02-14 11:50:00,41.4,30.5,30.15,West,268,3.0,5.0,65,0.00,,,0.00,Wunderground v.1.15,2013-02-14 16:50:00,
2013-02-14 11:55:00,41.4,31.3,30.16,West,259,3.0,5.0,67,0.00,,,0.00,Wunderground v.1.15,2013-02-14 16:55:00,
2013-02-14 12:00:00,42.5,31.6,30.16,SSW,199,2.0,5.0,65,0.00,,,0.00,Wunderground v.1.15,2013-02-14 17:00:00,
2013-02-14 12:05:00,42.9,31.6,30.16,SSW,209,2.0,5.0,64,0.00,,,0.00,Wunderground v.1.15,2013-02-14 17:05:00,
2013-02-14 12:10:00,43.1,31.4,30.16,SW,222,2.0,2.0,63,0.00,,,0.00,Wunderground v.1.15,2013-02-14 17:10:00,
2013-02-14 12:15:00,43.6,31.8,30.16,SE,133,2.0,5.0,63,0.00,,,0.00,Wunderground v.1.15,2013-02-14 17:15:00,
2013-02-14 12:20:00,44.2,32.0,30.16,SSW,206,2.0,2.0,62,0.00,,,0.00,Wunderground v.1.15,2013-02-14 17:20:00,
2013-02-14 12:25:00,44.9,32.7,30.16,SE,129,1.0,3.0,62,0.00,,,0.00,Wunderground v.1.15,2013-02-14 17:25:00,
2013-02-14 12:30:00,45.3,31.8,30.15,West,267,1.0,1.0,59,0.00,,,0.00,Wunderground v.1.15,2013-02-14 17:30:00,
2013-02-14 12:35:00,45.5,33.2,30.15,SSE,157,2.0,2.0,62,0.00,,,0.00,Wunderground v.1.15,2013-02-14 17:35:00,
2013-02-14 12:40:00,44.9,31.4,30.14,SSW,199,4.0,5.0,59,0.00,,,0.00,Wunderground v.1.15,2013-02-14 17:40:00,
2013-02-14 12:45:00,44.6,32.0,30.14,WSW,242,4.0,5.0,61,0.00,,,0.00,Wunderground v.1.15,2013-02-14 17:45:00,
2013-02-14 12:50:00,45.2,32.5,30.14,SW,225,2.0,2.0,61,0.00,,,0.00,Wunderground v.1.15,2013-02-14 17:50:00,
2013-02-14 12:55:00,45.9,31.9,30.14,East,90,1.0,3.0,58,0.00,,,0.00,Wunderground v.1.15,2013-02-14 17:55:00,
2013-02-14 13:00:00,45.9,32.8,30.13,WSW,250,2.0,2.0,60,0.00,,,0.00,Wunderground v.1.15,2013-02-14 18:00:00,
2013-02-14 13:05:00,46.1,32.1,30.13,SW,219,2.0,5.0,58,0.00,,,0.00,Wunderground v.1.15,2013-02-14 18:05:00,
2013-02-14 13:10:00,45.7,32.6,30.12,SW,221,2.0,5.0,60,0.00,,,0.00,Wunderground v.1.15,2013-02-14 18:10:00,
2013-02-14 13:15:00,45.1,32.0,30.12,NE,44,3.0,5.0,60,0.00,,,0.00,Wunderground v.1.15,2013-02-14 18:15:00,
2013-02-14 13:20:00,45.1,32.0,30.11,WNW,298,2.0,2.0,60,0.00,,,0.00,Wunderground v.1.15,2013-02-14 18:20:00,
2013-02-14 13:25:00,46.1,32.6,30.11,SSE,163,1.0,5.0,59,0.00,,,0.00,Wunderground v.1.15,2013-02-14 18:25:00,
2013-02-14 13:30:00,47.1,33.5,30.10,South,180,1.0,5.0,59,0.00,,,0.00,Wunderground v.1.15,2013-02-14 18:30:00,
2013-02-14 13:35:00,47.3,31.9,30.10,WSW,255,2.0,5.0,55,0.00,,,0.00,Wunderground v.1.15,2013-02-14 18:35:00,
2013-02-14 13:45:00,46.9,32.4,30.10,East,83,2.0,5.0,57,0.00,,,0.00,Wunderground v.1.15,2013-02-14 18:45:00,
2013-02-14 13:50:00,46.8,32.4,30.09,SSW,205,2.0,5.0,57,0.00,,,0.00,Wunderground v.1.15,2013-02-14 18:50:00,
2013-02-14 13:55:00,47.0,32.1,30.08,WSW,258,2.0,5.0,56,0.00,,,0.00,Wunderground v.1.15,2013-02-14 18:55:00,
2013-02-14 14:00:00,47.4,32.9,30.08,SSE,163,2.0,2.0,57,0.00,,,0.00,Wunderground v.1.15,2013-02-14 19:00:00,
2013-02-14 14:05:00,47.8,32.4,30.08,SSE,155,2.0,5.0,55,0.00,,,0.00,Wunderground v.1.15,2013-02-14 19:05:00,
2013-02-14 14:10:00,48.6,32.7,30.08,NW,319,1.0,5.0,54,0.00,,,0.00,Wunderground v.1.15,2013-02-14 19:10:00,
2013-02-14 14:15:00,48.2,32.8,30.08,SW,233,2.0,5.0,55,0.00,,,0.00,Wunderground v.1.15,2013-02-14 19:15:00,
2013-02-14 14:20:00,48.7,32.3,30.10,ENE,68,2.0,5.0,53,0.00,,,0.00,Wunderground v.1.15,2013-02-14 19:20:00,
2013-02-14 14:45:00,50.0,32.6,30.11,North,355,1.0,4.0,51,0.00,,,0.00,Wunderground v.1.15,2013-02-14 19:45:00,
2013-02-14 14:50:00,49.9,32.5,30.11,South,189,2.0,5.0,51,0.00,,,0.00,Wunderground v.1.15,2013-02-14 19:50:00,
2013-02-14 14:55:00,49.5,31.1,30.11,SSE,160,3.0,5.0,49,0.00,,,0.00,Wunderground v.1.15,2013-02-14 19:55:00,
2013-02-14 15:00:00,49.3,30.4,30.10,WSW,240,3.0,3.0,48,0.00,,,0.00,Wunderground v.1.15,2013-02-14 20:00:00,
2013-02-14 15:05:00,49.4,31.0,30.10,ENE,68,2.0,5.0,49,0.00,,,0.00,Wunderground v.1.15,2013-02-14 20:05:00,
2013-02-14 15:10:00,49.4,32.0,30.09,WSW,252,2.0,5.0,51,0.00,,,0.00,Wunderground v.1.15,2013-02-14 20:10:00,
2013-02-14 15:15:00,50.0,32.1,30.10,WNW,282,2.0,5.0,50,0.00,,,0.00,Wunderground v.1.15,2013-02-14 20:15:00,
2013-02-14 15:25:00,49.9,29.9,30.09,SSE,163,2.0,6.0,46,0.00,,,0.00,Wunderground v.1.15,2013-02-14 20:25:00,
2013-02-14 15:30:00,49.8,30.4,30.10,ENE,78,1.0,1.0,47,0.00,,,0.00,Wunderground v.1.15,2013-02-14 20:30:00,
2013-02-14 15:35:00,49.7,30.3,30.11,NE,34,1.0,2.0,47,0.00,,,0.00,Wunderground v.1.15,2013-02-14 20:35:00,
2013-02-14 15:40:00,50.2,30.7,30.11,NW,321,1.0,1.0,47,0.00,,,0.00,Wunderground v.1.15,2013-02-14 20:40:00,
2013-02-14 15:45:00,50.7,30.7,30.10,WNW,301,1.0,5.0,46,0.00,,,0.00,Wunderground v.1.15,2013-02-14 20:45:00,
2013-02-14 15:55:00,51.7,32.1,30.10,SW,221,2.0,5.0,47,0.00,,,0.00,Wunderground v.1.15,2013-02-14 20:55:00,
2013-02-14 16:00:00,51.5,31.4,30.10,SW,215,2.0,5.0,46,0.00,,,0.00,Wunderground v.1.15,2013-02-14 21:00:00,
2013-02-14 16:10:00,51.3,30.7,30.10,SE,141,2.0,2.0,45,0.00,,,0.00,Wunderground v.1.15,2013-02-14 21:10:00,
2013-02-14 16:15:00,51.3,31.7,30.10,SSE,155,1.0,5.0,47,0.00,,,0.00,Wunderground v.1.15,2013-02-14 21:15:00,
2013-02-14 16:20:00,51.3,31.2,30.10,SW,223,2.0,5.0,46,0.00,,,0.00,Wunderground v.1.15,2013-02-14 21:20:00,
2013-02-14 16:25:00,51.0,31.5,30.10,SW,225,3.0,5.0,47,0.00,,,0.00,Wunderground v.1.15,2013-02-14 21:25:00,
2013-02-14 16:30:00,50.8,31.3,30.10,SW,230,3.0,3.0,47,0.00,,,0.00,Wunderground v.1.15,2013-02-14 21:30:00,
2013-02-14 16:35:00,51.2,30.6,30.10,West,273,1.0,5.0,45,0.00,,,0.00,Wunderground v.1.15,2013-02-14 21:35:00,
2013-02-14 16:40:00,51.2,30.0,30.10,West,261,1.0,5.0,44,0.00,,,0.00,Wunderground v.1.15,2013-02-14 21:40:00,
2013-02-14 16:45:00,51.2,30.0,30.10,SSW,211,2.0,5.0,44,0.00,,,0.00,Wunderground v.1.15,2013-02-14 21:45:00,
2013-02-14 16:55:00,51.1,28.8,30.10,North,355,2.0,5.0,42,0.00,,,0.00,Wunderground v.1.15,2013-02-14 21:55:00,
2013-02-14 17:00:00,51.2,29.4,30.10,SSW,202,2.0,5.0,43,0.00,,,0.00,Wunderground v.1.15,2013-02-14 22:00:00,
2013-02-14 17:10:00,50.8,29.6,30.10,ESE,113,1.0,5.0,44,0.00,,,0.00,Wunderground v.1.15,2013-02-14 22:10:00,
2013-02-14 17:15:00,50.5,29.4,30.10,East,101,1.0,5.0,44,0.00,,,0.00,Wunderground v.1.15,2013-02-14 22:15:00,
2013-02-14 17:20:00,50.1,29.0,30.10,ESE,113,1.0,1.0,44,0.00,,,0.00,Wunderground v.1.15,2013-02-14 22:20:00,
2013-02-14 17:30:00,49.9,28.8,30.11,ESE,122,2.0,2.0,44,0.00,,,0.00,Wunderground v.1.15,2013-02-14 22:30:00,
2013-02-14 17:35:00,49.5,29.0,30.11,South,171,1.0,5.0,45,0.00,,,0.00,Wunderground v.1.15,2013-02-14 22:35:00,
2013-02-14 17:40:00,49.2,28.2,30.11,SSW,198,1.0,5.0,44,0.00,,,0.00,Wunderground v.1.15,2013-02-14 22:40:00,
2013-02-14 17:45:00,49.0,28.6,30.11,SSW,198,1.0,5.0,45,0.00,,,0.00,Wunderground v.1.15,2013-02-14 22:45:00,
2013-02-14 17:50:00,48.8,28.9,30.11,SSW,200,1.0,5.0,46,0.00,,,0.00,Wunderground v.1.15,2013-02-14 22:50:00,
2013-02-14 17:55:00,48.6,28.7,30.11,SSW,213,1.0,5.0,46,0.00,,,0.00,Wunderground v.1.15,2013-02-14 22:55:00,
2013-02-14 18:01:00,48.3,27.9,30.11,SSW,213,1.0,5.0,45,0.00,,,0.00,Wunderground v.1.15,2013-02-14 23:01:00,
2013-02-14 18:05:00,47.9,28.1,30.11,SSW,213,1.0,5.0,46,0.00,,,0.00,Wunderground v.1.15,2013-02-14 23:05:00,
2013-02-14 18:10:00,47.2,28.0,30.11,SSW,213,1.0,1.0,47,0.00,,,0.00,Wunderground v.1.15,2013-02-14 23:10:00,
2013-02-14 18:15:00,46.8,27.6,30.12,South,170,1.0,5.0,47,0.00,,,0.00,Wunderground v.1.15,2013-02-14 23:15:00,
2013-02-14 18:20:00,46.3,29.6,30.12,South,170,0.0,5.0,52,0.00,,,0.00,Wunderground v.1.15,2013-02-14 23:20:00,
2013-02-14 18:25:00,45.8,29.2,30.12,South,170,0.0,5.0,52,0.00,,,0.00,Wunderground v.1.15,2013-02-14 23:25:00,
2013-02-14 18:30:00,45.3,28.7,30.12,South,170,0.0,5.0,52,0.00,,,0.00,Wunderground v.1.15,2013-02-14 23:30:00,
2013-02-14 18:35:00,44.7,29.1,30.12,South,170,0.0,5.0,54,0.00,,,0.00,Wunderground v.1.15,2013-02-14 23:35:00,
2013-02-14 18:40:00,44.2,29.0,30.12,South,170,0.0,5.0,55,0.00,,,0.00,Wunderground v.1.15,2013-02-14 23:40:00,
2013-02-14 18:45:00,43.9,29.6,30.12,South,170,0.0,5.0,57,0.00,,,0.00,Wunderground v.1.15,2013-02-14 23:45:00,
2013-02-14 18:50:00,43.6,29.4,30.12,South,170,0.0,5.0,57,0.00,,,0.00,Wunderground v.1.15,2013-02-14 23:50:00,
2013-02-14 19:00:00,43.1,28.0,30.13,South,170,0.0,5.0,55,0.00,,,0.00,Wunderground v.1.15,2013-02-15 00:00:00,
2013-02-14 19:05:00,43.1,28.5,30.13,South,170,0.0,5.0,56,0.00,,,0.00,Wunderground v.1.15,2013-02-15 00:05:00,
2013-02-14 19:10:00,43.0,28.8,30.13,East,84,0.0,5.0,57,0.00,,,0.00,Wunderground v.1.15,2013-02-15 00:10:00,
2013-02-14 19:15:00,43.1,28.9,30.13,East,84,0.0,5.0,57,0.00,,,0.00,Wunderground v.1.15,2013-02-15 00:15:00,
2013-02-14 19:20:00,43.2,27.7,30.12,East,84,0.0,5.0,54,0.00,,,0.00,Wunderground v.1.15,2013-02-15 00:20:00,
2013-02-14 19:25:00,43.2,29.4,30.13,East,84,0.0,5.0,58,0.00,,,0.00,Wunderground v.1.15,2013-02-15 00:25:00,
2013-02-14 19:30:00,42.9,27.8,30.13,East,88,0.0,5.0,55,0.00,,,0.00,Wunderground v.1.15,2013-02-15 00:30:00,
2013-02-14 19:35:00,42.8,27.7,30.13,South,182,1.0,5.0,55,0.00,,,0.00,Wunderground v.1.15,2013-02-15 00:35:00,
2013-02-14 19:40:00,42.7,28.5,30.13,South,182,1.0,1.0,57,0.00,,,0.00,Wunderground v.1.15,2013-02-15 00:40:00,
2013-02-14 19:45:00,42.3,29.0,30.13,South,182,0.0,5.0,59,0.00,,,0.00,Wunderground v.1.15,2013-02-15 00:45:00,
2013-02-14 19:55:00,41.5,28.6,30.13,South,182,0.0,5.0,60,0.00,,,0.00,Wunderground v.1.15,2013-02-15 00:55:00,
2013-02-14 20:01:00,41.2,28.8,30.14,South,182,0.0,5.0,61,0.00,,,0.00,Wunderground v.1.15,2013-02-15 01:01:00,
2013-02-14 20:05:00,41.0,28.2,30.14,South,182,0.0,5.0,60,0.00,,,0.00,Wunderground v.1.15,2013-02-15 01:05:00,
2013-02-14 20:10:00,40.7,28.7,30.14,South,182,0.0,5.0,62,0.00,,,0.00,Wunderground v.1.15,2013-02-15 01:10:00,
2013-02-14 20:15:00,40.6,29.0,30.14,South,182,0.0,5.0,63,0.00,,,0.00,Wunderground v.1.15,2013-02-15 01:15:00,
2013-02-14 20:20:00,40.4,28.4,30.14,South,182,0.0,5.0,62,0.00,,,0.00,Wunderground v.1.15,2013-02-15 01:20:00,
2013-02-14 20:25:00,40.2,28.6,30.14,South,182,0.0,5.0,63,0.00,,,0.00,Wunderground v.1.15,2013-02-15 01:25:00,
2013-02-14 20:30:00,40.2,28.6,30.14,South,182,0.0,5.0,63,0.00,,,0.00,Wunderground v.1.15,2013-02-15 01:30:00,
2013-02-14 20:35:00,40.1,28.5,30.14,South,182,0.0,5.0,63,0.00,,,0.00,Wunderground v.1.15,2013-02-15 01:35:00,
2013-02-14 20:40:00,40.1,28.9,30.14,SSE,167,0.0,5.0,64,0.00,,,0.00,Wunderground v.1.15,2013-02-15 01:40:00,
2013-02-14 20:45:00,40.1,28.9,30.14,SSE,167,0.0,5.0,64,0.00,,,0.00,Wunderground v.1.15,2013-02-15 01:45:00,
2013-02-14 20:55:00,40.1,28.5,30.14,SSE,166,0.0,5.0,63,0.00,,,0.00,Wunderground v.1.15,2013-02-15 01:55:00,
2013-02-14 21:00:00,40.3,28.3,30.14,SSE,166,0.0,5.0,62,0.00,,,0.00,Wunderground v.1.15,2013-02-15 02:00:00,
2013-02-14 21:10:00,40.4,28.8,30.15,SSE,166,0.0,5.0,63,0.00,,,0.00,Wunderground v.1.15,2013-02-15 02:10:00,
2013-02-14 21:15:00,40.4,28.4,30.16,SSE,166,0.0,5.0,62,0.00,,,0.00,Wunderground v.1.15,2013-02-15 02:15:00,
2013-02-14 21:20:00,40.4,28.4,30.16,SSE,166,1.0,5.0,62,0.00,,,0.00,Wunderground v.1.15,2013-02-15 02:20:00,
2013-02-14 21:25:00,40.3,28.7,30.16,SSE,166,0.0,5.0,63,0.00,,,0.00,Wunderground v.1.15,2013-02-15 02:25:00,
2013-02-14 21:30:00,40.2,28.6,30.16,SSE,166,1.0,5.0,63,0.00,,,0.00,Wunderground v.1.15,2013-02-15 02:30:00,
2013-02-14 21:35:00,40.4,28.0,30.16,SSE,166,1.0,5.0,61,0.00,,,0.00,Wunderground v.1.15,2013-02-15 02:35:00,
2013-02-14 21:40:00,40.4,28.8,30.16,SSE,166,1.0,1.0,63,0.00,,,0.00,Wunderground v.1.15,2013-02-15 02:40:00,
2013-02-14 21:45:00,40.6,28.6,30.16,SE,135,1.0,5.0,62,0.00,,,0.00,Wunderground v.1.15,2013-02-15 02:45:00,
2013-02-14 21:50:00,40.9,28.9,30.16,SE,135,1.0,5.0,62,0.00,,,0.00,Wunderground v.1.15,2013-02-15 02:50:00,
2013-02-14 21:55:00,41.1,29.1,30.16,SE,127,1.0,5.0,62,0.00,,,0.00,Wunderground v.1.15,2013-02-15 02:55:00,
2013-02-14 22:01:00,40.9,29.3,30.17,SE,127,1.0,1.0,63,0.00,,,0.00,Wunderground v.1.15,2013-02-15 03:01:00,
2013-02-14 22:05:00,40.7,29.8,30.17,SE,127,1.0,5.0,65,0.00,,,0.00,Wunderground v.1.15,2013-02-15 03:05:00,
2013-02-14 22:15:00,39.9,29.5,30.17,SE,127,1.0,5.0,66,0.00,,,0.00,Wunderground v.1.15,2013-02-15 03:15:00,
2013-02-14 22:20:00,39.8,29.7,30.17,SE,127,1.0,1.0,67,0.00,,,0.00,Wunderground v.1.15,2013-02-15 03:20:00,
2013-02-14 22:25:00,39.8,29.7,30.17,SE,127,1.0,5.0,67,0.00,,,0.00,Wunderground v.1.15,2013-02-15 03:25:00,
2013-02-14 22:30:00,39.7,29.6,30.17,SE,127,1.0,5.0,67,0.00,,,0.00,Wunderground v.1.15,2013-02-15 03:30:00,
2013-02-14 22:35:00,39.6,29.5,30.17,SE,127,0.0,5.0,67,0.00,,,0.00,Wunderground v.1.15,2013-02-15 03:35:00,
2013-02-14 22:40:00,39.6,29.5,30.17,SE,127,0.0,5.0,67,0.00,,,0.00,Wunderground v.1.15,2013-02-15 03:40:00,
2013-02-14 22:45:00,39.5,29.4,30.17,SE,127,0.0,5.0,67,0.00,,,0.00,Wunderground v.1.15,2013-02-15 03:45:00,
2013-02-14 22:50:00,39.4,29.3,30.17,SE,127,0.0,5.0,67,0.00,,,0.00,Wunderground v.1.15,2013-02-15 03:50:00,
2013-02-14 22:55:00,39.3,29.3,30.17,SE,127,1.0,5.0,67,0.00,,,0.00,Wunderground v.1.15,2013-02-15 03:55:00,
2013-02-14 23:01:00,39.3,29.3,30.17,SE,127,0.0,5.0,67,0.00,,,0.00,Wunderground v.1.15,2013-02-15 04:01:00,
2013-02-14 23:05:00,39.2,29.2,30.17,SE,127,1.0,5.0,67,0.00,,,0.00,Wunderground v.1.15,2013-02-15 04:05:00,
2013-02-14 23:10:00,39.2,29.5,30.17,SE,127,1.0,5.0,68,0.00,,,0.00,Wunderground v.1.15,2013-02-15 04:10:00,
2013-02-14 23:15:00,39.1,29.4,30.17,SE,127,1.0,5.0,68,0.00,,,0.00,Wunderground v.1.15,2013-02-15 04:15:00,
2013-02-14 23:25:00,39.3,29.6,30.18,SE,127,1.0,5.0,68,0.00,,,0.00,Wunderground v.1.15,2013-02-15 04:25:00,
2013-02-14 23:30:00,39.4,29.7,30.17,SE,127,1.0,1.0,68,0.00,,,0.00,Wunderground v.1.15,2013-02-15 04:30:00,
2013-02-14 23:35:00,39.4,29.7,30.17,SE,127,0.0,5.0,68,0.00,,,0.00,Wunderground v.1.15,2013-02-15 04:35:00,
2013-02-14 23:40:00,39.3,29.6,30.17,SE,127,0.0,5.0,68,0.00,,,0.00,Wunderground v.1.15,2013-02-15 04:40:00,
2013-02-14 23:50:00,39.1,29.8,30.17,SE,127,0.0,5.0,69,0.00,,,0.00,Wunderground v.1.15,2013-02-15 04:50:00,
2013-02-14 23:55:00,39.2,29.9,30.18,SE,127,0.0,5.0,69,0.00,,,0.00,Wunderground v.1.15,2013-02-15 04:55:00,